Regional Weather Roundup
Issued by NWS Wakefield, VA

Home | Current Version | Previous Version | Graphics & Text | Print | Product List | Glossary On
Versions: 1 2 3 4 5 6 7 8 9 10 11 12 13 14 15 16 17 18 19 20 21 22 23 24 25 26 27 28 29 30 31 32 33 34 35 36 37 38 39 40 41 42 43 44 45 46 47 48 49 50
000
ASUS41 KAKQ 201415
RWRAKQ

REGIONAL WEATHER ROUNDUP
NATIONAL WEATHER SERVICE WAKEFIELD VA
900 AM EST FRI JAN 20 2017

Note: "fair" indicates few or no clouds below 12,000 feet with no
significant weather and/or obstructions to visibility. * = Denotes
station may not report precipitation (e.g., rain,snow,etc.),
thunder or fog.

VAZ042-051-052>054-056-201500-
NORTHERN VIRGINIA

CITY           SKY/WX    TMP DP  RH WIND       PRES   REMARKS
WASH NATIONAL  CLOUDY    43  38  82 CALM      29.98S
DULLES         LGT RAIN  42  37  82 VRB3      29.96R
FORT BELVOIR   CLOUDY    40  37  88 CALM      29.97R
QUANTICO       CLOUDY    42  39  89 CALM      29.99R
FREDERICKSBRG* CLOUDY    41  41 100 CALM      29.96S
STAFFORD*      CLOUDY    39  39 100 CALM      30.00S
WARRENTON      CLOUDY    40  36  85 CALM      29.96R
CULPEPER*      CLOUDY    40  39  94 CALM      29.97R
MANASSAS*      NOT AVBL
LEESBURG*      DRIZZLE   39  39 100 CALM      29.96R
WINCHESTER     CLOUDY    37  37 100 CALM      29.90S FOG
FRONT ROYAL*   CLOUDY    37  37 100 CALM      29.90S
LURAY*         CLOUDY    41  41 100 CALM      29.91R
$$

VAZ048-049-060>072-079>083-201500-
CENTRAL AND SOUTH CENTRAL VIRGINIA

CITY           SKY/WX    TMP DP  RH WIND       PRES   REMARKS
RICHMOND       CLOUDY    44  41  89 S3        29.96S
CHESTERFIELD*  PTSUNNY   45  28  53 SE5       29.97F
PETERSBURG*    CLOUDY    43  39  87 CALM      29.96S
HANOVER        CLOUDY    44  39  82 VRB3      29.97F
TAPPAHANNOCK*  CLOUDY    44  38  77 SE5       29.98R
QUINTON*       CLOUDY    43  40  90 S3        29.96S
CHARLOTTSVILLE CLOUDY    44  39  82 CALM      29.93S
GORDONSVILLE*  PTSUNNY   41  39  94 CALM      29.94S
ORANGE*          N/A     43  41  93 CALM      29.97R
LOUISA*        CLOUDY    45  43  93 CALM      29.93F
BUMPASS*       CLOUDY    40  40  99 CALM      29.95S
FARMVILLE*     LGT RAIN  44  43  93 CALM      29.93S
CREWE*         CLOUDY    44  44 100 CALM      29.94S
FORT PICKETT*  PTSUNNY  N/A N/A N/A SE3       29.94F
CHASE CITY*    CLOUDY    44  43  95 MISG      29.97R
CLARKSVILLE*   CLOUDY    45  45 100 NW8       29.95R
SOUTH HILL*    CLOUDY    44  43  95 CALM      29.99S
LAWRENCEVILLE* PTSUNNY   43  41  94 MISG      29.94F
EMPORIA*       CLOUDY    43  41  93 CALM      29.97S FOG
$$

VAZ088>098-201500-
SOUTHEAST VIRGINIA

CITY           SKY/WX    TMP DP  RH WIND       PRES   REMARKS
NORFOLK        CLOUDY    48  42  80 S7        29.98S
VIRGINIA BEACH CLOUDY    47  43  86 S6        29.98R
NORFOLK NAVAL  CLOUDY    48  42  80 S7        30.00R
WEST POINT*    CLOUDY    45  41  86 SE5       29.99R
SALUDA*        FAIR      44  41  89 SW3       30.00R
NEWPORT NEWS   CLOUDY    47  41  80 S6        29.99R
LANGLEY AFB    PTSUNNY   47  43  87 S3        29.99R
FORT EUSTIS    CLOUDY    46  41  82 SE6       29.95S
WILLIAMSBURG*  CLOUDY    46  43  87 S7        29.99R
HR EXEC AP*    FAIR      45  41  87 SE5       29.97S
FRANKLIN*      CLOUDY    45  40  83 CALM      29.98F
US460-WAKEFLD  CLOUDY    45  40  82 S3        29.97S
$$

VAZ020-022-025-037-045-201500-
WEST CENTRAL AND SOUTHWEST VIRGINIA

CITY           SKY/WX    TMP DP  RH WIND       PRES   REMARKS
STAUNTON*      LGT RAIN  43  41  93 W3        29.92F
WAYNESBORO*    CLOUDY    43  41  92 CALM      29.89F
HOT SPRINGS VA LGT RAIN  41  41 100 S13G18    29.85S VSB<1/4
LYNCHBURG      RAIN      43  42  97 CALM      29.93R FOG
DANVILLE       LGT RAIN  45  45 100 CALM      29.93R FOG
SOUTH BOSTON*  CLOUDY    44  43  95 CALM      29.93F
MARTINSVILLE   DRIZZLE   43  43  97 CALM      29.92F
ROANOKE        CLOUDY    45  44  97 SE3       29.92R
BLACKSBURG     CLOUDY    44  44  98 CALM      29.92R
DUBLIN*        CLOUDY    45  45  99 CALM      29.90R FOG
MARION*        LGT RAIN  47  46  96 E5        29.89R
HILLSVILLE*    CLOUDY    46  46 100 CALM      29.86R FOG
RICHLANDS*     CLOUDY   N/A N/A N/A SW8       29.84R
WISE*          CLOUDY    52  52 100 SW9       29.84R
ABINGDON*      LGT RAIN  54  53  99 CALM      29.85R
$$

MDZ021>025-VAZ099-100-201500-
SOUTHERN MARYLAND AND THE DELMARVA PENINSULA

CITY           SKY/WX    TMP DP  RH WIND       PRES   REMARKS
PATUXENT RIVER CLOUDY    41  40  96 SE6       29.98S
BAY BRIDGE APT CLOUDY    39  37  93 SE5       29.99F FOG
LEONARDTOWN    CLOUDY    41  36  81 CALM      30.00R
DOVER          CLOUDY    37  37 100 E3        29.99R FOG
GEORGETOWN     CLOUDY    39  37  92 CALM      30.00R FOG
EASTON         CLOUDY    37  36  93 SE6       30.01F FOG
CAMBRIDGE      CLOUDY    37  36  93 CALM      29.98S
SALISBURY      CLOUDY    37  37 100 E3        30.00R FOG
OCEAN CITY     CLOUDY    41  40  96 CALM      30.00R FOG
WALLOPS ISLAND CLOUDY    41  41 100 NE3       30.00F FOG
ACCOMACK*      CLOUDY    42  41  97 CALM      29.99R FOG
$$

NCZ012>017-030>032-201500-
NORTH CENTRAL AND EASTERN NORTH CAROLINA

CITY           SKY/WX    TMP DP  RH WIND       PRES   REMARKS
ROANOKE RAPIDS FAIR      43  43 100 CALM      29.95S
RALEIGH        LGT RAIN  48  46  93 SE6       29.92R FOG
ELIZABETH CITY CLOUDY    47  44  90 E6        29.99S
AHOSKIE*         N/A     43  41  93 CALM      29.97S
EDENTON*       CLOUDY    49  45  84 CALM      29.98F
CURRITUCK*     CLOUDY    46  46 100 CALM      29.99S
KILL DEVIL HLS NOT AVBL
MANTEO         CLOUDY    49  47  92 E3        29.99R
CAPE HATTERAS  CLOUDY    54  44  69 NE3       29.98S
TARBORO*       NOT AVBL
GOLDSBORO      CLOUDY    49  49 100 E6        29.92F
WASHINGTON     CLOUDY    46  43  88 E5          N/A
GREENVILLE     PTSUNNY   46  45  93 E3        29.97F
NEW BERN       CLOUDY    50  45  83 E6        29.97S
WILMINGTON     PTSUNNY   59  55  87 E7        29.92F
$$

VAZ048-201500-
ELSEWHERE

CITY           SKY/WX    TMP DP  RH WIND       PRES   REMARKS
HARRISBURG PA  CLOUDY    37  34  89 CALM      29.98R
BALTIMORE      LGT RAIN  39  37  92 E6        29.97F FOG
ANNAPOLIS      CLOUDY    41  37  86 CALM      29.98S FOG
ANDREWS AFB    DRIZZLE   40  36  87 E3        29.96S
PHILADELPHIA   CLOUDY    37  34  89 CALM      30.01S
HENDERSON NC   LGT RAIN  44  42  92 SE3       29.91S
GREENSBORO     DRIZZLE   48  48 100 CALM      29.90S FOG
ROCKY MOUNT    LGT RAIN  46  45  96 VRB5      29.94S
$$

VAZ100-201500-
MARINE

STATION/POSITION TIME  TEMP    WIND        PRES    WAVE   SWELL
                       AIR SEA DIR/SP/G            HT/PER HT/PER
                 (UTC) (F)     (DEG/KT/KT) (MB)    (FT/S) (FT/S)
CAPE MAY NJ      1342   38 40   CALM  /  1 1016.1R
LEWES DE         1348   41 42  120/  2/  2 1016.1R
OCEAN-CITY-INLET 1348   41 42   90/  2/  3 1016.1R
WACHAPREAGUE VA  1348   44 47   60/  2/  3 1015.5R
THOMAS POINT MD  1300   38 39  100/  7/  7   N/A
GOOSES REEF MD   1350   40     150/  4/  6 1015.7F
COVE POINT MD    1348   40     170/  4/  5 1015.7F
SOLOMONS ISLAND  1336   41 41  110/  5/  6   N/A
BISHOPS HEAD MD  1342   41 43   90/  6/  6 1015.4R
PINEY POINT MD   1342          130/  6/  6   N/A
POTOMAC MD       1350   41     130/  6/  8 1014.2F
CAMBRIDGE MD     1348   39 40   80/  5/  6 1014.2F
LEWISETTA VA     1348   43 43  110/  5/  5 1014.9R
RAPPAHANNOCK LGT 1348          140/  7/  7 1015.7R
STINGRAY PT      1350   41     150/  6/  8 1015.4R
YORK RVR RNG VA  1348   44     160/  5/  6 1014.5R
YORKTOWN VA      1348   45 43  190/  4/  5 1015.2R
JAMESTOWN VA     1350   45     120/  6/  6   N/A
DOMINION TERM VA 1348   45     140/  3/  4 1015.4R
KIPTOPEKE VA     1348      44  140/  5/  6   N/A
CHES BAY BRIDGE  1348   44 43  150/  3/  5 1015.1F
CAPE HENRY VA    1348   47     140/  6/  8   N/A
WILLOUBY STN VA  1342   46     140/  7/  8 1015.7S
S CRANEY ISL VA  1348   46     160/  7/  9 1015.1R
CAPE HENRY BUOY  1342      48                N/A     4/11   2/11
OFFSHORE WE BUOY 1351      49                N/A     4/13   3/13
64NM E OF VA BCH 1250   52 56  290/  4/  6 1015.5    6/11   5/11
DUCK PIER NC     1342   46 45  100/  5/  5 1015.0R
44100 DUCK FRF   1335      47                N/A     4/13   3/13
44056 DUCK FRF   1330      44                N/A     4/13   3/13
OREGON INLET NC  1342   47 49   40/  3/  5 1015.3R
HATTERAS NC      1348   52 54   50/  3/  5 1014.7R
DIAMOND SHLS NC  1250   61 76  100/  6/ 10 1014.8    5/12   5/12
CAPE LOOKOUT NC  1300   63     100/  9/ 10 1013.6F
$$



USA.gov is the U.S. government's official web portal to all federal, state and local government web resources and services.